EW3814 Weather Reports


time (UTC)temp
C
wind
direction
speed
KPH
gust
KPH
rain 1hr
cm
rain 24hr
cm
rain mn
cm
humidity
%
barometer
mb
20260510224542 25 8 0.0 0.0 0.00 0.00 0.00 41 1017.2
20260510223541 26 8 0.0 0.0 0.00 0.00 0.00 38 1017.3
20260510223039 26 4 0.0 0.0 0.00 0.00 0.00 40 1017.3
20260510222538 26 5 0.0 0.0 0.00 0.00 0.00 38 1017.3
20260510222039 26 5 0.0 0.0 0.00 0.00 0.00 38 1017.3
20260510221538 26 5 0.0 0.0 0.00 0.00 0.00 37 1017.2
20260510220538 26 5 0.0 0.0 0.00 0.00 0.00 39 1017.2
20260510220039 26 5 0.0 0.0 0.00 0.00 0.00 38 1017.2
20260510215037 26 5 0.0 0.0 0.00 0.00 0.00 38 1017.1
20260510214039 26 5 0.0 0.0 0.00 0.00 0.00 31 1017.1
20260510213537 26 3 0.0 0.0 0.00 0.00 0.00 33 1017.0
20260510213035 26 252 0.0 0.0 0.00 0.00 0.00 36 1017.1
20260510212534 26 248 0.0 0.0 0.00 0.00 0.00 35 1017.0
20260510212033 26 296 0.0 0.0 0.00 0.00 0.00 32 1017.1
20260510211534 26 296 0.0 0.0 0.00 0.00 0.00 40 1017.1
20260510211033 26 252 0.0 0.0 0.00 0.00 0.00 36 1017.2
20260510210533 26 252 0.0 0.0 0.00 0.00 0.00 33 1017.1
20260510210031 26 190 0.0 0.0 0.00 0.00 0.00 38 1017.1
20260510205529 27 190 0.0 0.0 0.00 0.00 0.00 29 1017.1
20260510205027 27 190 0.0 0.0 0.00 0.00 0.00 32 1017.1
20260510204526 27 198 0.0 0.0 0.00 0.00 0.00 35 1017.0
20260510203527 28 115 0.0 0.0 0.00 0.00 0.00 31 1017.1
20260510203026 27 109 0.0 0.0 0.00 0.00 0.00 30 1017.2
20260510202527 27 109 0.0 0.0 0.00 0.00 0.00 29 1017.2
20260510202026 27 109 0.0 0.0 0.00 0.00 0.00 30 1017.3
20260510201527 27 109 0.0 0.0 0.00 0.00 0.00 35 1017.3
20260510201026 28 237 0.0 0.0 0.00 0.00 0.00 33 1017.4
20260510200527 28 338 0.0 0.0 0.00 0.00 0.00 30 1017.4
20260510200026 27 182 0.0 0.0 0.00 0.00 0.00 29 1017.5
20260510195527 27 165 0.0 0.0 0.00 0.00 0.00 30 1017.5
20260510194526 27 194 0.0 0.0 0.00 0.00 0.00 29 1017.6
20260510194027 28 196 0.0 0.0 0.00 0.00 0.00 33 1017.6
20260510193026 28 216 0.0 0.0 0.00 0.00 0.00 28 1017.6
20260510192526 28 207 0.0 0.0 0.00 0.00 0.00 27 1017.6
20260510192026 28 244 0.0 0.0 0.00 0.00 0.00 28 1017.7
20260510191528 28 328 0.0 0.0 0.00 0.00 0.00 28 1017.7
20260510185526 28 30 0.0 0.0 0.00 0.00 0.00 31 1017.9
20260510185023 27 6 0.0 0.0 0.00 0.00 0.00 28 1017.8
20260510184522 28 348 0.0 0.0 0.00 0.00 0.00 29 1017.9
20260510184023 27 21 0.0 0.0 0.00 0.00 0.00 28 1017.9
20260510182522 27 189 0.0 0.0 0.00 0.00 0.00 30 1018.0
20260510182020 27 183 0.0 0.0 0.00 0.00 0.00 31 1018.1
20260510181021 27 356 0.0 0.0 0.00 0.00 0.00 31 1018.0
20260510175519 28 155 0.0 0.0 0.00 0.00 0.00 30 1018.2
20260510175020 27 155 0.0 0.0 0.00 0.00 0.00 31 1018.3
20260510174516 27 177 0.0 0.0 0.00 0.00 0.00 34 1018.3
20260510174016 27 194 0.0 0.0 0.00 0.00 0.00 34 1018.3
20260510173016 27 17 0.0 0.0 0.00 0.00 0.00 33 1018.5
20260510172514 27 7 0.0 0.0 0.00 0.00 0.00 31 1018.7
20260510172015 27 68 0.0 0.0 0.00 0.00 0.00 33 1018.7
20260510170514 27 90 0.0 0.0 0.00 0.00 0.00 34 1018.8
20260510165512 26 96 0.0 0.0 0.00 0.00 0.00 31 1018.7
20260510165014 26 169 0.0 0.0 0.00 0.00 0.00 36 1018.6
20260510164513 26 169 0.0 0.0 0.00 0.00 0.00 33 1018.7
20260510164012 26 175 0.0 0.0 0.00 0.00 0.00 32 1018.7
20260510163512 26 175 0.0 0.0 0.00 0.00 0.00 33 1018.8
20260510163013 26 145 0.0 0.0 0.00 0.00 0.00 40 1018.8
20260510162512 25 145 0.0 0.0 0.00 0.00 0.00 36 1018.7
20260510162011 25 145 0.0 0.0 0.00 0.00 0.00 36 1018.8
20260510161510 25 148 0.0 0.0 0.00 0.00 0.00 40 1018.8
20260510160511 25 173 0.0 0.0 0.00 0.00 0.00 38 1018.9
20260510160010 25 281 0.0 0.0 0.00 0.00 0.00 40 1018.9
20260510154511 24 272 0.0 0.0 0.00 0.00 0.00 45 1019.0
20260510154011 23 6 0.0 0.0 0.00 0.00 0.00 49 1019.0
20260510153511 23 32 0.0 0.0 0.00 0.00 0.00 50 1019.0
20260510153009 23 262 0.0 0.0 0.00 0.00 0.00 51 1019.0
20260510152009 23 267 0.0 0.0 0.00 0.00 0.00 50 1019.0
20260510151508 23 267 0.0 0.0 0.00 0.00 0.00 48 1019.0
20260510151007 22 252 0.0 0.0 0.00 0.00 0.00 55 1019.0
20260510150509 22 248 0.0 0.0 0.00 0.00 0.00 52 1019.0
20260510145508 22 275 0.0 0.0 0.00 0.00 0.00 60 1019.1
20260510145009 22 275 0.0 0.0 0.00 0.00 0.00 59 1019.2
20260510144508 22 177 0.0 0.0 0.00 0.00 0.00 59 1019.1
20260510143008 22 177 0.0 0.0 0.00 0.00 0.00 62 1019.1
20260510142506 21 359 0.0 0.0 0.00 0.00 0.00 63 1019.1
20260510142006 21 359 0.0 0.0 0.00 0.00 0.00 64 1019.1
20260510141006 21 0 0.0 0.0 0.00 0.00 0.00 75 1019.1
20260510140506 21 0 0.0 0.0 0.00 0.00 0.00 69 1019.1
20260510140005 20 25 0.0 0.0 0.00 0.00 0.00 70 1019.1
20260510135505 20 30 0.0 0.0 0.00 0.00 0.00 80 1019.0
20260510135008 20 30 0.0 0.0 0.00 0.00 0.00 79 1019.1
20260510134507 19 30 0.0 0.0 0.00 0.00 0.00 83 1019.1
20260510134007 19 30 0.0 0.0 0.00 0.00 0.00 83 1019.0
20260510133507 19 30 0.0 0.0 0.00 0.00 0.00 84 1019.0
20260510133004 18 30 0.0 0.0 0.00 0.00 0.00 84 1019.0
20260510132504 17 29 0.0 0.0 0.00 0.00 0.00 90 1019.0
20260510132003 16 29 0.0 0.0 0.00 0.00 0.00 95 1019.0
20260510131005 15 29 0.0 0.0 0.00 0.00 0.00 95 1019.0
20260510130504 15 29 0.0 0.0 0.00 0.00 0.00 95 1019.0
20260510130004 15 29 0.0 0.0 0.00 0.00 0.00 95 1018.9
20260510125504 15 29 0.0 0.0 0.00 0.00 0.00 95 1018.9
20260510125005 15 29 0.0 0.0 0.00 0.00 0.00 95 1019.0
20260510124001 13 30 0.0 0.0 0.00 0.00 0.00 95 1018.9
20260510123503 13 30 0.0 0.0 0.00 0.00 0.00 95 1018.8
20260510123002 13 30 0.0 0.0 0.00 0.00 0.00 95 1018.7
20260510122500 13 30 0.0 0.0 0.00 0.00 0.00 94 1018.6
20260510121959 13 30 0.0 0.0 0.00 0.00 0.00 94 1018.6
20260510121500 13 30 0.0 0.0 0.00 0.00 0.00 94 1018.4
20260510120959 13 30 0.0 0.0 0.00 0.00 0.00 94 1018.3
20260510120000 13 30 0.0 0.0 0.00 0.00 0.00 94 1018.0
20260510115500 13 30 0.0 0.0 0.00 0.00 0.00 94 1017.9
20260510115000 13 30 0.0 0.0 0.00 0.00 0.00 94 1017.9
20260510114501 13 30 0.0 0.0 0.00 0.00 0.00 94 1017.9
20260510113959 13 30 0.0 0.0 0.00 0.00 0.00 94 1017.8
20260510113000 12 30 0.0 0.0 0.00 0.00 0.00 94 1017.7
20260510112459 13 30 0.0 0.0 0.00 0.00 0.00 93 1017.7
20260510112000 13 30 0.0 0.0 0.00 0.00 0.00 93 1017.6
20260510111501 13 30 0.0 0.0 0.00 0.00 0.00 93 1017.5
20260510111000 13 30 0.0 0.0 0.00 0.00 0.00 93 1017.5
20260510110501 13 30 0.0 0.0 0.00 0.00 0.00 93 1017.4
20260510105459 13 30 0.0 0.0 0.00 0.00 0.00 93 1017.2
20260510105000 13 30 0.0 0.0 0.00 0.00 0.00 93 1017.1
20260510104501 13 30 0.0 0.0 0.00 0.00 0.00 93 1017.0
20260510103501 13 30 0.0 0.0 0.00 0.00 0.00 93 1016.6
20260510102500 13 30 0.0 0.0 0.00 0.00 0.00 93 1016.6
20260510101501 13 30 0.0 0.0 0.00 0.00 0.00 93 1016.5
20260510101001 13 30 0.0 0.0 0.00 0.00 0.00 93 1016.4
20260510100457 13 30 0.0 0.0 0.00 0.00 0.00 93 1016.4
20260510095959 13 30 0.0 0.0 0.00 0.00 0.00 93 1016.4
20260510095457 13 30 0.0 0.0 0.00 0.00 0.00 93 1016.2
20260510095101 13 30 0.0 0.0 0.00 0.00 0.00 93 1016.2
20260510094601 13 30 0.0 0.0 0.00 0.00 0.00 93 1016.1
20260510093556 14 30 0.0 0.0 0.00 0.00 0.00 93 1016.0
20260510093055 14 30 0.0 0.0 0.00 0.00 0.00 93 1016.0
20260510092552 14 30 0.0 0.0 0.00 0.00 0.00 93 1015.9
20260510092052 14 30 0.0 0.0 0.00 0.00 0.00 93 1016.0
20260510091549 14 30 0.0 0.0 0.00 0.00 0.00 93 1015.9
20260510091048 14 30 0.0 0.0 0.00 0.00 0.00 93 1015.8
20260510090047 14 30 0.0 0.0 0.00 0.00 0.00 93 1015.7
20260510085544 14 30 0.0 0.0 0.00 0.00 0.00 93 1015.7
20260510084541 14 30 0.0 0.0 0.00 0.00 0.00 93 1015.6
20260510084039 14 30 0.0 0.0 0.00 0.00 0.00 93 1015.6
20260510083539 15 30 0.0 0.0 0.00 0.00 0.00 93 1015.5
20260510083036 15 30 0.0 0.0 0.00 0.00 0.00 93 1015.3
20260510082535 15 30 0.0 0.0 0.00 0.00 0.00 93 1015.2
20260510082035 15 30 0.0 0.0 0.00 0.00 0.00 93 1015.3
20260510081532 15 30 0.0 0.0 0.00 0.00 0.00 93 1015.2
20260510081034 15 30 0.0 0.0 0.00 0.00 0.00 93 1015.2
20260510080531 15 30 0.0 0.0 0.00 0.00 0.00 93 1015.2
20260510080029 15 30 0.0 0.0 0.00 0.00 0.00 93 1015.3
20260510075027 15 30 0.0 0.0 0.00 0.00 0.00 93 1015.1
20260510074023 15 30 0.0 0.0 0.00 0.00 0.00 93 1015.0
20260510073523 15 30 0.0 0.0 0.00 0.00 0.00 93 1015.0
20260510072519 15 30 0.0 0.0 0.00 0.00 0.00 92 1015.0
20260510072018 15 30 0.0 0.0 0.00 0.00 0.00 92 1014.9
20260510071015 15 30 0.0 0.0 0.00 0.00 0.00 92 1014.9
20260510070514 15 30 0.0 0.0 0.00 0.00 0.00 92 1014.9
20260510070011 15 30 0.0 0.0 0.00 0.00 0.00 92 1014.9
20260510065510 15 30 0.0 0.0 0.00 0.00 0.00 92 1014.8
20260510065009 15 30 0.0 0.0 0.00 0.00 0.00 92 1014.8
20260510064005 15 30 0.0 0.0 0.00 0.00 0.00 92 1014.8
20260510063002 15 30 0.0 0.0 0.00 0.00 0.00 92 1014.9
20260510062501 15 30 0.0 0.0 0.00 0.00 0.00 92 1014.9
20260510061959 16 30 0.0 0.0 0.00 0.00 0.00 92 1014.8
20260510061458 16 30 0.0 0.0 0.00 0.00 0.00 92 1014.8
20260510060954 16 30 0.0 0.0 0.00 0.00 0.00 92 1014.8
20260510060454 16 30 0.0 0.0 0.00 0.00 0.00 92 1014.8
20260510055952 16 30 0.0 0.0 0.00 0.00 0.00 92 1014.9
20260510055449 16 30 0.0 0.0 0.00 0.00 0.00 92 1014.9
20260510054949 16 30 0.0 0.0 0.00 0.00 0.00 92 1015.0
20260510054448 16 30 0.0 0.0 0.00 0.00 0.00 92 1015.0
20260510053947 16 30 0.0 0.0 0.00 0.00 0.00 92 1015.0
20260510053446 16 30 0.0 0.0 0.00 0.00 0.00 92 1015.0
20260510052945 16 30 0.0 0.0 0.00 0.00 0.00 92 1014.9
20260510052444 16 30 0.0 0.0 0.00 0.00 0.00 92 1015.0
20260510051943 16 30 0.0 0.0 0.00 0.00 0.00 92 1015.0
20260510051443 16 30 0.0 0.0 0.00 0.00 0.00 92 1015.1
20260510050941 16 30 0.0 0.0 0.00 0.00 0.00 92 1015.2
20260510050441 16 30 0.0 0.0 0.00 0.00 0.00 92 1015.3
20260510045441 16 30 0.0 0.0 0.00 0.00 0.00 91 1015.3
20260510044941 16 30 0.0 0.0 0.00 0.00 0.00 91 1015.3
20260510043942 16 30 0.0 0.0 0.00 0.00 0.00 91 1015.2
20260510042941 16 30 0.0 0.0 0.00 0.00 0.00 90 1015.2
20260510042441 16 30 0.0 0.0 0.00 0.00 0.00 90 1015.2
20260510041941 16 30 0.0 0.0 0.00 0.00 0.00 91 1015.3
20260510041442 16 30 0.0 0.0 0.00 0.00 0.00 90 1015.4
20260510040941 16 30 0.0 0.0 0.00 0.00 0.00 90 1015.4
20260510040438 16 30 0.0 0.0 0.00 0.00 0.00 90 1015.2
20260510035939 17 30 0.0 0.0 0.00 0.00 0.00 90 1015.2
20260510035439 17 30 0.0 0.0 0.00 0.00 0.00 90 1015.3
20260510034938 17 30 0.0 0.0 0.00 0.00 0.00 89 1015.3
20260510033438 17 30 0.0 0.0 0.00 0.00 0.00 89 1015.3
20260510032939 17 30 0.0 0.0 0.00 0.00 0.00 89 1015.3
20260510031938 17 30 0.0 0.0 0.00 0.00 0.00 88 1015.3
20260510031438 17 30 0.0 0.0 0.00 0.00 0.00 88 1015.3
20260510030938 17 30 0.0 0.0 0.00 0.00 0.00 88 1015.2
20260510025940 17 30 0.0 0.0 0.00 0.00 0.00 88 1015.2
20260510025439 17 30 0.0 0.0 0.00 0.00 0.00 88 1015.2
20260510024940 17 30 0.0 0.0 0.00 0.00 0.00 88 1015.2
20260510024439 17 30 0.0 0.0 0.00 0.00 0.00 87 1015.1
20260510023938 17 30 0.0 0.0 0.00 0.00 0.00 87 1015.2
20260510023438 17 30 0.0 0.0 0.00 0.00 0.00 87 1015.0
20260510022940 18 30 0.0 0.0 0.00 0.00 0.00 87 1015.0
20260510022439 18 30 0.0 0.0 0.00 0.00 0.00 87 1015.0
20260510021939 18 30 0.0 0.0 0.00 0.00 0.00 86 1015.0
20260510021439 18 30 0.0 0.0 0.00 0.00 0.00 86 1014.9
20260510020939 18 30 0.0 0.0 0.00 0.00 0.00 86 1015.0
20260510020439 18 30 0.0 0.0 0.00 0.00 0.00 86 1014.9
20260510015938 18 30 0.0 0.0 0.00 0.00 0.00 86 1014.9
20260510014939 18 30 0.0 0.0 0.00 0.00 0.00 85 1014.7
20260510014438 18 30 0.0 0.0 0.00 0.00 0.00 85 1014.5
20260510013939 18 30 0.0 0.0 0.00 0.00 0.00 86 1014.6
20260510013438 18 30 0.0 0.0 0.00 0.00 0.00 85 1014.5
20260510012938 18 30 0.0 0.0 0.00 0.00 0.00 85 1014.4
20260510012439 18 30 0.0 0.0 0.00 0.00 0.00 84 1014.3
20260510011938 18 30 0.0 0.0 0.00 0.00 0.00 83 1014.3
20260510011439 18 30 0.0 0.0 0.00 0.00 0.00 83 1014.3
20260510010939 18 30 0.0 0.0 0.00 0.00 0.00 83 1014.2
20260510010439 18 30 0.0 0.0 0.00 0.00 0.00 83 1014.2
20260510005939 19 30 0.0 0.0 0.00 0.00 0.00 82 1014.2
20260510005440 19 30 0.0 0.0 0.00 0.00 0.00 81 1014.1
20260510004940 19 30 0.0 0.0 0.00 0.00 0.00 81 1014.0
20260510004437 19 30 0.0 0.0 0.00 0.00 0.00 81 1013.9
20260510003937 20 30 0.0 0.0 0.00 0.00 0.00 81 1013.7
20260510003437 20 30 0.0 0.0 0.00 0.00 0.00 81 1013.6
20260510002937 20 30 0.0 0.0 0.00 0.00 0.00 80 1013.5
20260510002434 20 30 0.0 0.0 0.00 0.00 0.00 80 1013.5
20260510001933 20 30 0.0 0.0 0.00 0.00 0.00 79 1013.4
20260510001434 20 30 0.0 0.0 0.00 0.00 0.00 80 1013.3
20260510000930 20 30 0.0 0.0 0.00 0.00 0.00 80 1013.3
20260509235430 21 30 0.0 0.0 0.00 0.00 0.00 79 1013.1
20260509234931 21 30 0.0 0.0 0.00 0.00 0.00 77 1013.0
20260509234430 21 30 0.0 0.0 0.00 0.00 0.00 77 1013.0
20260509233931 21 30 0.0 0.0 0.00 0.00 0.00 77 1013.0
20260509233432 21 30 0.0 0.0 0.00 0.00 0.00 77 1013.0
20260509232928 21 30 0.0 0.0 0.00 0.00 0.00 77 1013.0
20260509232429 21 30 0.0 0.0 0.00 0.00 0.00 77 1013.1
20260509231930 21 30 0.0 0.0 0.00 0.00 0.00 75 1013.1
20260509230929 21 30 0.0 0.0 0.00 0.00 0.00 74 1013.1
20260509230428 21 30 0.0 0.0 0.00 0.00 0.00 74 1013.1
20260509225929 21 35 0.0 0.0 0.00 0.00 0.00 74 1013.0
20260509225428 21 35 0.0 0.0 0.00 0.00 0.00 74 1012.7
20260509224929 21 36 0.0 0.0 0.00 0.00 0.00 73 1012.6